Date String (YYYY-MM-DD hh:mm:ss) UTC,Instrument flags,Ambient pressure (hPa),Sample flow (lpm),Bypass flow (lpm),Sample temperature (°C),Ambient temperature (°C),ASC tube jacket temperature (°C),LED temperature (°C),Box temperature (°C),Sample RH (%),Span deviation,Mass concentration (μg/m³),Mass concentration (μg/m³),Mass concentration (μg/m³)
DateTimeUTC,F1_M11,P_M11,Q1_M11,Q2_M11,T1_M11,T2_M11,T3_M11,T4_M11,T5_M11,U1_M11,ZSPAN_M11,X2_M11,X0_M11,X1_M11
2022-06-04 16:00:00,,0821.8,4.98,0.00,29.7,28.9,00.0,38.5,31.6,21.7,0000.0,0004.29,0010.51,0003.42
2022-06-04 16:01:00,,0821.7,5.02,0.00,29.7,28.9,00.0,38.5,31.7,21.7,0000.0,0004.30,0010.56,0003.42
2022-06-04 16:02:00,,0821.7,5.00,0.00,29.8,28.9,00.0,38.5,31.7,21.5,0000.0,0004.28,0009.96,0003.41
2022-06-04 16:03:00,,0821.7,4.99,0.00,29.8,28.9,00.0,38.6,31.7,22.5,0000.0,0004.23,0009.80,0003.41
2022-06-04 16:04:00,,0821.7,5.00,0.00,29.8,28.9,00.0,38.6,31.7,21.2,0000.0,0004.18,0009.71,0003.41
2022-06-04 16:05:00,,0821.7,5.00,0.00,29.8,28.9,00.0,38.6,31.7,21.2,0000.0,0004.12,0008.68,0003.39
2022-06-04 16:06:00,,0821.7,5.00,0.00,29.8,29.0,00.0,38.6,31.7,21.0,0000.0,0004.07,0008.51,0003.39
2022-06-04 16:07:00,,0821.7,5.01,0.00,29.8,29.0,00.0,38.6,31.7,20.9,0000.0,0004.09,0008.49,0003.39
2022-06-04 16:08:00,,0821.7,4.99,0.00,29.8,29.0,00.0,38.6,31.7,21.7,0000.0,0004.06,0008.26,0003.39
2022-06-04 16:09:00,,0821.7,5.00,0.00,29.9,29.0,00.0,38.6,31.8,22.0,0000.0,0004.08,0008.31,0003.40
2022-06-04 16:10:00,,0821.7,4.98,0.00,29.9,29.0,00.0,38.7,31.8,20.6,0000.0,0004.07,0007.92,0003.39
2022-06-04 16:11:00,,0821.7,5.01,0.00,29.9,29.0,00.0,38.7,31.7,21.0,0000.0,0004.08,0008.61,0003.39
2022-06-04 16:12:00,,0821.7,5.00,0.00,29.9,29.1,00.0,38.7,31.8,20.2,0000.0,0004.06,0009.02,0003.38
2022-06-04 16:13:00,,0821.7,4.99,0.00,29.9,29.1,00.0,38.7,31.8,19.6,0000.0,0004.05,0009.37,0003.36
2022-06-04 16:14:00,,0821.7,5.00,0.00,29.9,29.1,00.0,38.7,31.8,21.1,0000.0,0004.08,0009.78,0003.36
2022-06-04 16:15:00,,0821.7,5.00,0.00,29.9,29.1,00.0,38.7,31.8,20.1,0000.0,0004.10,0010.29,0003.35
2022-06-04 16:16:00,,0821.7,5.01,0.00,30.0,29.1,00.0,38.8,31.9,21.3,0000.0,0004.11,0010.31,0003.35
2022-06-04 16:17:00,,0821.6,5.00,0.00,30.0,29.1,00.0,38.8,31.9,22.3,0000.0,0004.12,0010.55,0003.36
2022-06-04 16:18:00,,0821.6,5.00,0.00,30.0,29.2,00.0,38.8,31.9,21.3,0000.0,0004.12,0011.00,0003.35
2022-06-04 16:19:00,,0821.6,4.99,0.00,30.0,29.2,00.0,38.8,31.9,21.0,0000.0,0004.06,0011.15,0003.33
2022-06-04 16:20:00,,0821.5,4.99,0.00,30.0,29.2,00.0,38.8,31.9,21.0,0000.0,0004.02,0011.44,0003.32
2022-06-04 16:21:00,,0821.4,5.01,0.00,30.0,29.1,00.0,38.8,31.9,20.9,0000.0,0004.05,0011.54,0003.31
2022-06-04 16:22:00,,0821.4,5.00,0.00,30.0,28.4,00.0,38.7,31.8,23.1,0000.0,0004.03,0010.76,0003.31
2022-06-04 16:23:00,,0821.4,5.00,0.00,29.9,27.5,00.0,38.7,31.5,21.9,0000.0,0004.07,0010.67,0003.32
2022-06-04 16:24:00,,0821.4,4.99,0.00,29.9,27.3,00.0,38.6,31.4,21.8,0000.0,0004.10,0010.38,0003.33
2022-06-04 16:25:00,,0821.4,5.01,0.00,29.8,27.4,00.0,38.6,31.4,22.5,0000.0,0004.13,0010.79,0003.33
2022-06-04 16:26:00,,0821.4,4.98,0.00,29.7,27.5,00.0,38.6,31.4,22.5,0000.0,0004.17,0010.68,0003.34
2022-06-04 16:27:00,,0821.4,5.02,0.00,29.7,27.6,00.0,38.6,31.4,21.9,0000.0,0004.18,0011.26,0003.34
2022-06-04 16:28:00,,0821.4,5.00,0.00,29.6,27.8,00.0,38.6,31.4,21.8,0000.0,0004.16,0011.98,0003.33
2022-06-04 16:29:00,,0821.4,4.99,0.00,29.6,27.9,00.0,38.6,31.4,22.1,0000.0,0004.16,0012.28,0003.34
2022-06-04 16:30:00,,0821.4,5.01,0.00,29.6,28.1,00.0,38.6,31.4,22.2,0000.0,0004.17,0012.08,0003.35
2022-06-04 16:31:00,,0821.4,5.00,0.00,29.6,28.2,00.0,38.5,31.4,22.0,0000.0,0004.17,0011.77,0003.35
2022-06-04 16:32:00,,0821.4,4.99,0.00,29.6,28.3,00.0,38.5,31.4,21.2,0000.0,0004.13,0011.80,0003.34
2022-06-04 16:33:00,,0821.4,5.00,0.00,29.6,28.3,00.0,38.5,31.5,21.9,0000.0,0004.14,0011.88,0003.32
2022-06-04 16:34:00,,0821.4,5.00,0.00,29.6,28.4,00.0,38.5,31.5,21.3,0000.0,0004.09,0011.70,0003.30
2022-06-04 16:35:00,,0821.4,5.00,0.00,29.7,28.5,00.0,38.5,31.5,22.3,0000.0,0004.03,0012.22,0003.28
2022-06-04 16:36:00,,0821.4,5.01,0.00,29.7,28.6,00.0,38.5,31.5,22.0,0000.0,0003.93,0011.78,0003.26
2022-06-04 16:37:00,,0821.4,5.00,0.00,29.7,28.6,00.0,38.5,31.5,21.6,0000.0,0003.87,0011.53,0003.24
2022-06-04 16:38:00,,0821.4,4.99,0.00,29.7,28.7,00.0,38.5,31.6,21.1,0000.0,0003.85,0011.16,0003.22
2022-06-04 16:39:00,,0821.4,4.99,0.00,29.7,28.7,00.0,38.6,31.6,21.6,0000.0,0003.86,0010.20,0003.21
2022-06-04 16:40:00,,0821.3,5.01,0.00,29.7,28.7,00.0,38.6,31.6,21.2,0000.0,0003.82,0009.42,0003.19
2022-06-04 16:41:00,,0821.4,5.00,0.00,29.8,28.8,00.0,38.6,31.7,22.0,0000.0,0003.84,0010.20,0003.18
2022-06-04 16:42:00,,0821.3,4.99,0.00,29.8,28.8,00.0,38.6,31.7,21.4,0000.0,0003.89,0010.33,0003.19
2022-06-04 16:43:00,,0821.4,5.00,0.00,29.8,28.9,00.0,38.6,31.7,21.8,0000.0,0003.91,0010.65,0003.19
2022-06-04 16:44:00,,0821.4,5.01,0.00,29.8,28.9,00.0,38.6,31.7,21.6,0000.0,0003.90,0010.87,0003.21
2022-06-04 16:45:00,,0821.3,5.01,0.00,29.8,28.7,00.0,38.6,31.7,21.8,0000.0,0003.92,0010.67,0003.22
2022-06-04 16:46:00,,0821.3,4.99,0.00,29.8,27.9,00.0,38.5,31.5,22.4,0000.0,0003.95,0010.02,0003.24
2022-06-04 16:47:00,,0821.3,5.00,0.00,29.7,27.4,00.0,38.5,31.4,22.8,0000.0,0004.03,0009.89,0003.25
2022-06-04 16:48:00,,0821.3,5.00,0.00,29.7,27.4,00.0,38.5,31.3,23.4,0000.0,0004.05,0009.72,0003.26
2022-06-04 16:49:00,,0821.3,5.00,0.00,29.6,27.5,00.0,38.4,31.3,23.0,0000.0,0004.05,0009.45,0003.28
2022-06-04 16:50:00,,0821.3,5.00,0.00,29.5,27.6,00.0,38.4,31.3,22.8,0000.0,0004.03,0009.43,0003.28
2022-06-04 16:51:00,,0821.3,4.99,0.00,29.5,27.7,00.0,38.4,31.3,22.9,0000.0,0004.06,0009.83,0003.31
2022-06-04 16:52:00,,0821.3,5.01,0.00,29.5,27.8,00.0,38.4,31.3,22.8,0000.0,0004.07,0009.31,0003.32
2022-06-04 16:53:00,,0821.3,5.00,0.00,29.5,28.0,00.0,38.4,31.3,22.9,0000.0,0004.05,0009.67,0003.32
2022-06-04 16:54:00,,0821.3,4.99,0.00,29.5,28.1,00.0,38.4,31.3,22.5,0000.0,0004.01,0009.49,0003.33
2022-06-04 16:55:00,,0821.2,5.00,0.00,29.5,28.2,00.0,38.4,31.4,22.8,0000.0,0004.01,0009.05,0003.33
2022-06-04 16:56:00,,0821.2,5.01,0.00,29.5,28.3,00.0,38.4,31.4,24.2,0000.0,0004.03,0009.42,0003.35
2022-06-04 16:57:00,,0821.2,4.99,0.00,29.5,28.4,00.0,38.4,31.4,23.6,0000.0,0004.09,0009.99,0003.36
2022-06-04 16:58:00,,0821.2,5.00,0.00,29.6,28.4,00.0,38.4,31.5,23.8,0000.0,0004.08,0010.44,0003.36
2022-06-04 16:59:00,,0821.2,5.00,0.00,29.6,28.5,00.0,38.4,31.5,24.0,0000.0,0004.09,0010.81,0003.39
